Decatur, AL

6:51 AM CST on November 20, 2017 (GMT -0600)
Pryor Regional

Weather History for KDCU - October, 2013

Change the Weather History Date:

Saturday, October 5, 2013

  Actual Average Record
Temperature  
Mean Temperature 75 °F -  
Max Temperature 87 °F 78 °F 97 °F (1954)
Min Temperature 64 °F 49 °F 33 °F (1968)
Cooling Degree Days 10    
Growing Degree Days 25 (Base 50)    
Moisture  
Dew Point 66 °F    
Average Humidity 75    
Maximum Humidity 93    
Minimum Humidity 53    
Precipitation  
Precipitation 0.01 in - - ()
Sea Level Pressure  
Sea Level Pressure 30.03 in    
Wind  
Wind Speed 4 mph (SE)    
Max Wind Speed 12 mph    
Max Gust Speed -    
Visibility 9 miles    
Events      
Averages and records for this station are not official NWS values.
T = Trace of Precipitation, MM = Missing Value Source: NWS Daily Summary

Daily Weather History Graph

Daily Weather History Graph

Search for Another Location

Airport or City:

Trip Planner

Search our weather history database for the weather conditions in past years. The results will help you decide how hot, cold, wet, or windy it might be!

Date:

Astronomy

Oct. 05, 2013 Rise Set
Actual Time 6:45 AM CDT 6:25 PM CDT
Civil Twilight 6:20 AM CDT 6:51 PM CDT
Nautical Twilight 5:51 AM CDT 7:20 PM CDT
Astronomical Twilight 5:22 AM CDT 7:49 PM CDT
Moon 7:21 AM CDT (10/5) 6:48 PM CDT (10/5)
Length of Visible Light 12h 30m
Length of Day
11h 40m
New Moon, 1% of the Moon is Illuminated
Oct 5
New Moon
Oct 11
First Quarter
Oct 18
Full
Oct 26
Last Quarter
Nov 3
New

Hourly Weather History & Observations

Time (CDT) Temp. Heat Index Dew Point Humidity Pressure Visibility Wind Dir Wind Speed Gust Speed Precip Events Conditions
12:53 AM 66.0 °F - 64.0 °F 93% 30.08 in 6.0 mi Calm Calm - N/A   Clear
1:53 AM 66.0 °F - 64.0 °F 93% 30.08 in 7.0 mi Calm Calm - N/A   Clear
2:53 AM 66.0 °F - 64.0 °F 93% 30.06 in 7.0 mi East 4.6 mph - N/A   Partly Cloudy
3:53 AM 68.0 °F - 64.9 °F 90% 30.07 in 8.0 mi Calm Calm - 0.01 in   Mostly Cloudy
4:53 AM 66.0 °F - 64.0 °F 93% 30.07 in 7.0 mi Calm Calm - N/A   Clear
5:53 AM 64.9 °F - 63.0 °F 93% 30.08 in 6.0 mi Calm Calm - N/A   Clear
6:53 AM 66.9 °F - 64.9 °F 93% 30.09 in 7.0 mi East 4.6 mph - N/A   Partly Cloudy
7:53 AM 70.0 °F - 64.9 °F 84% 30.09 in 7.0 mi ESE 4.6 mph - N/A   Clear
8:53 AM 73.9 °F - 66.9 °F 79% 30.09 in 9.0 mi SE 6.9 mph - N/A   Clear
9:53 AM 79.0 °F - 68.0 °F 69% 30.09 in 10.0 mi South 6.9 mph - N/A   Clear
10:53 AM 82.0 °F 84.9 °F 68.0 °F 62% 30.08 in 10.0 mi South 11.5 mph - N/A   Clear
11:53 AM 84.9 °F 88.8 °F 69.1 °F 59% 30.07 in 10.0 mi South 5.8 mph - N/A   Clear
12:53 PM 86.0 °F 89.4 °F 68.0 °F 55% 30.04 in 10.0 mi South 9.2 mph - N/A   Clear
1:53 PM 86.0 °F 89.4 °F 68.0 °F 55% 30.02 in 10.0 mi South 8.1 mph - N/A   Partly Cloudy
2:53 PM 84.9 °F 87.6 °F 66.9 °F 55% 29.99 in 10.0 mi South 5.8 mph - N/A   Clear
3:53 PM 86.0 °F 88.8 °F 66.9 °F 53% 29.97 in 10.0 mi SSE 9.2 mph - N/A   Clear
4:53 PM 84.9 °F 87.1 °F 66.0 °F 53% 29.96 in 10.0 mi SE 10.4 mph - N/A   Partly Cloudy
5:53 PM 81.0 °F 83.3 °F 66.9 °F 62% 29.96 in 10.0 mi SE 8.1 mph - N/A   Clear
6:53 PM 75.0 °F - 66.9 °F 76% 29.97 in 10.0 mi ESE 3.5 mph - N/A   Clear
7:53 PM 75.9 °F - 66.0 °F 71% 29.97 in 10.0 mi ESE 5.8 mph - N/A   Clear
8:53 PM 73.0 °F - 66.0 °F 79% 29.98 in 10.0 mi SE 4.6 mph - N/A   Clear
9:53 PM 72.0 °F - 64.9 °F 78% 29.98 in 10.0 mi SE 4.6 mph - N/A   Clear
10:53 PM 70.0 °F - 64.9 °F 84% 29.96 in 10.0 mi SE 5.8 mph - N/A   Clear
11:53 PM 68.0 °F - 64.0 °F 87% 29.94 in 10.0 mi SE 3.5 mph - N/A   Clear